Location: Allos
(44.2333°N, 6.6333°E)
Time: 09:23:49
(UTC+00:00)

BREEZE-M DEB (TANK) - Pass Details

Date: 01 December 2020
Orbit: 321 x 13923 km, 49.6° (Epoch: 25 January)

Event Time Altitude Azimuth Distance (km) Brightness Sun altitude
Rises 17:59:19 0° 238° (WSW) 6,842 9.6 -21.5°
Reaches altitude 10° 18:05:36 10° 238° (WSW) 4,189 8.2 -22.6°
Maximum altitude 18:13:51 81° 153° (SSE) 693 3.1 -24.1°
Enters shadow 18:14:01 78° 115° (ESE) 681 3.0 -24.1°
